Weather History for Willimantic, CT

Change the Weather History Date:

Monday, October 29, 2012

  Actual Average Record
Temperature  
Mean Temperature 60 °F -  
Max Temperature 69 °F 59 °F 79 °F (1989)
Min Temperature 52 °F 31 °F 18 °F (1976)
Degree Days  
Heating Degree Days 4    
Growing Degree Days 10 (Base 50)    
Moisture  
Dew Point 54 °F    
Average Humidity 80    
Maximum Humidity 88    
Minimum Humidity 64    
Precipitation  
Precipitation 0.67 in - - ()
Sea Level Pressure  
Sea Level Pressure 29.25 in    
Wind  
Wind Speed 20 mph (ENE)    
Max Wind Speed 36 mph    
Max Gust Speed 52 mph    
Visibility 5 miles    
Events Rain    
Averages and records for this station are not official NWS values.
T = Trace of Precipitation, MM = Missing Value Source: NWS Daily Summary

Daily Weather History Graph

Daily Weather History Graph

Search for Another Location

Airport:

Trip Planner

Search our weather history database for the weather conditions in past years. The results will help you decide how hot, cold, wet, or windy it might be!

Date:

Astronomy

Oct. 29, 2012 Rise Set
Actual Time 7:17 AM EDT 5:46 PM EDT
Civil Twilight 6:49 AM EDT 6:15 PM EDT
Nautical Twilight 6:16 AM EDT 6:47 PM EDT
Astronomical Twilight 5:44 AM EDT 7:20 PM EDT
Moon 5:36 PM EDT (10/29) 7:05 AM EDT (10/29)
Length of Visible Light 11h 26m
Length of Day
10h 28m
Full, 100% of the Moon is Illuminated
Oct 29
Full
Oct 29
Full
Nov 6
Last Quarter
Nov 13
New
Nov 20
First Quarter

Hourly Weather History & Observations

Time (EDT) Temp. Dew Point Humidity Pressure Visibility Wind Dir Wind Speed Gust Speed Precip Events Conditions
1:52 AM 52.0 °F 48.0 °F 86% 29.66 in 6.0 mi NNE 13.8 mph - 0.00 in Rain Light Rain
2:30 AM 53.6 °F 48.2 °F 82% 29.64 in 10.0 mi NE 13.8 mph 24.2 mph 0.00 in   Overcast
2:52 AM 54.0 °F 48.9 °F 83% 29.63 in 10.0 mi NE 16.1 mph 24.2 mph 0.00 in   Overcast
3:00 AM 53.6 °F 48.2 °F 82% 29.62 in 7.0 mi NNE 13.8 mph 20.7 mph N/A   Overcast
3:11 AM 53.6 °F 50.0 °F 88% 29.61 in 5.0 mi NNE 12.7 mph 21.9 mph 0.00 in Rain Light Rain
3:22 AM 53.6 °F 50.0 °F 88% 29.60 in 5.0 mi NNE 16.1 mph 19.6 mph 0.00 in Rain Light Rain
3:52 AM 54.0 °F 50.0 °F 86% 29.59 in 7.0 mi NE 15.0 mph 26.5 mph 0.00 in Rain Light Rain
4:21 AM 55.4 °F 50.0 °F 82% 29.58 in 7.0 mi NE 19.6 mph 25.3 mph 0.00 in   Overcast
4:52 AM 55.0 °F 50.0 °F 83% 29.56 in 5.0 mi NE 18.4 mph 29.9 mph 0.00 in   Haze
5:00 AM 55.4 °F 50.0 °F 82% 29.54 in 7.0 mi NE 16.1 mph 26.5 mph N/A   Overcast
5:52 AM 55.0 °F 50.0 °F 83% 29.52 in 5.0 mi NE 19.6 mph 29.9 mph 0.00 in Rain Light Rain
6:52 AM 55.0 °F 50.0 °F 83% 29.50 in 6.0 mi NE 15.0 mph 29.9 mph 0.00 in Rain Light Rain
7:20 AM 55.4 °F 51.8 °F 88% 29.48 in 4.0 mi NE 19.6 mph 26.5 mph 0.00 in Rain Light Rain
7:52 AM 55.9 °F 51.1 °F 84% 29.48 in 5.0 mi NNE 18.4 mph 29.9 mph 0.00 in Rain Light Rain
8:43 AM 57.2 °F 51.8 °F 82% 29.45 in 9.0 mi NE 20.7 mph 32.2 mph 0.00 in   Overcast
8:52 AM 57.0 °F 52.0 °F 83% 29.45 in 9.0 mi NE 20.7 mph 31.1 mph 0.00 in   Overcast
9:27 AM 57.2 °F 51.8 °F 82% 29.42 in 5.0 mi NE 25.3 mph 33.4 mph 0.00 in Rain Light Rain
9:42 AM 57.2 °F 51.8 °F 82% 29.41 in 6.0 mi NE 20.7 mph 36.8 mph 0.00 in   Haze
9:52 AM 57.9 °F 52.0 °F 81% 29.41 in 7.0 mi NE 27.6 mph 36.8 mph 0.00 in Rain Light Rain
10:52 AM 59.0 °F 53.1 °F 81% 29.35 in 8.0 mi NE 21.9 mph 35.7 mph 0.00 in Rain Light Rain
11:52 AM 59.0 °F 54.0 °F 83% 29.27 in 4.0 mi NE 26.5 mph 43.7 mph 0.02 in Rain Light Rain
12:08 PM 59.0 °F 53.6 °F 82% 29.26 in 2.5 mi NE 27.6 mph 46.0 mph 0.00 in Rain Light Rain
12:52 PM 60.1 °F 55.0 °F 83% 29.19 in 2.0 mi NE 29.9 mph 48.3 mph 0.07 in Rain Light Rain
1:17 PM 60.8 °F 55.4 °F 82% 29.16 in 3.0 mi NE 31.1 mph 49.5 mph 0.03 in Rain Light Rain
1:27 PM 60.8 °F 55.4 °F 82% 29.15 in 2.0 mi NE 28.8 mph 51.8 mph 0.04 in Rain Light Rain
1:41 PM 60.8 °F 55.4 °F 82% 29.13 in 3.0 mi NE 29.9 mph 46.0 mph 0.05 in Rain Light Rain
1:48 PM 60.8 °F 55.4 °F 82% 29.13 in 2.5 mi NE 35.7 mph 48.3 mph 0.06 in Rain Light Rain
1:52 PM 60.1 °F 55.0 °F 83% 29.12 in 2.5 mi NE 33.4 mph 48.3 mph 0.07 in Rain Rain
2:07 PM 60.8 °F 55.4 °F 82% 29.10 in 1.8 mi NE 31.1 mph 48.3 mph 0.02 in Rain Rain
2:21 PM 60.8 °F 55.4 °F 82% 29.09 in 2.5 mi NE 28.8 mph 48.3 mph 0.04 in Rain Rain
2:45 PM 60.8 °F 55.4 °F 82% 29.06 in 1.5 mi NE 31.1 mph 46.0 mph 0.07 in Rain Rain
2:59 PM 60.8 °F 55.4 °F 82% 29.05 in 2.0 mi NE 32.2 mph 44.9 mph 0.00 in Rain Light Rain
3:13 PM 60.8 °F 55.4 °F 82% 29.04 in 1.8 mi NE 23.0 mph 46.0 mph 0.01 in Rain Light Rain
3:32 PM 60.8 °F 55.4 °F 82% 29.01 in 2.0 mi NE 31.1 mph 42.6 mph 0.03 in Rain Light Rain
3:44 PM 60.8 °F 55.4 °F 82% 29.00 in 1.8 mi NE 29.9 mph 40.3 mph 0.04 in Rain Light Rain
3:52 PM 62.1 °F 55.9 °F 80% 28.98 in 1.8 mi NE 31.1 mph 49.5 mph 0.05 in Rain Light Rain
4:04 PM 62.6 °F 57.2 °F 82% 28.97 in 2.0 mi ENE 29.9 mph 41.4 mph 0.02 in Rain Rain
4:22 PM 62.6 °F 57.2 °F 82% 28.96 in 1.5 mi ENE 35.7 mph 50.6 mph 0.05 in Rain Rain
4:52 PM 63.0 °F 57.9 °F 84% 28.96 in 1.8 mi ENE 28.8 mph 38.0 mph 0.15 in Rain Heavy Rain
5:13 PM 64.4 °F 59.0 °F 83% 28.98 in 3.0 mi East 19.6 mph 43.7 mph 0.05 in Rain Light Rain
6:11 PM 68.0 °F 59.0 °F 73% 29.00 in 8.0 mi East 17.3 mph 36.8 mph 0.00 in Rain Light Rain
6:31 PM 69.8 °F 57.2 °F 64% 29.02 in 10.0 mi East 17.3 mph 44.9 mph 0.01 in Rain Light Rain
6:52 PM 68.0 °F 59.0 °F 73% 29.02 in 9.0 mi East 13.8 mph 40.3 mph 0.01 in Rain Light Rain
7:04 PM 66.2 °F 60.8 °F 83% 29.04 in 2.5 mi ESE 19.6 mph 39.1 mph 0.08 in Rain Heavy Rain
7:17 PM 66.2 °F 60.8 °F 83% 29.04 in 5.0 mi ESE 12.7 mph 28.8 mph 0.10 in Rain Light Rain
7:52 PM 68.0 °F 57.9 °F 70% 29.06 in 8.0 mi ESE 16.1 mph 39.1 mph 0.18 in Rain Light Rain
8:04 PM 66.2 °F 59.0 °F 78% 29.07 in 2.5 mi ESE 15.0 mph 39.1 mph 0.08 in Rain Heavy Rain
8:19 PM 66.2 °F 60.8 °F 83% 29.08 in 6.0 mi East 13.8 mph 38.0 mph 0.11 in Rain Light Rain
8:43 PM 68.0 °F 55.4 °F 64% 29.09 in 10.0 mi ESE 18.4 mph 33.4 mph 0.12 in   Overcast
8:52 PM 66.9 °F 57.0 °F 70% 29.09 in 10.0 mi ESE 18.4 mph 38.0 mph 0.12 in Rain Light Rain
9:52 PM 66.0 °F 55.9 °F 70% 29.12 in 9.0 mi SE 12.7 mph 21.9 mph 0.00 in   Overcast
10:52 PM 66.0 °F 55.0 °F 68% 29.17 in 9.0 mi SE 11.5 mph 20.7 mph 0.00 in   Overcast
11:52 PM 64.9 °F 54.0 °F 68% 29.20 in 10.0 mi ESE 13.8 mph 25.3 mph 0.00 in   Overcast